Warning: Javascript must be enabled to use all the features on this page!


Page Loading - Please Wait...

Click to hideNews Bulletins

Peak Streamflow for the Nation

USGS 04184500 Bean Creek at Powers OH

Fulton County, Ohio
Hydrologic Unit Code 04100006
Latitude  41°39'34", Longitude  84°14'57" NAD27
Drainage area 206  square miles
Gage datum 709.43 feet above NAVD88
Output formats
Table
Graph
Tab-separated file
peakfq (watstore) format
Reselect output format
Water
Year
Date Gage
Height
(feet)
Stream-
flow
(cfs)
1941 1940-12-30 6.553 860
1942 1942-03-09 10.523 1,760
1943 1943-05-12 12.573 3,560
1944 1944-03-16 9.283 1,600
1945 1945-05-18 12.663 3,650
1946 1946-02-14 9.043 1,390
1947 1947-04-06 12.333 3,290
1948 1948-02-28 11.713 2,430
1949 1949-02-15 12.473 2,980
1950 1950-04-05 13.303 3,980
1951 1951-07-23 12.793 3,240
1952 1952-01-17 10.503 1,900
1953 1953-03-04 7.173 1,040
1954 1954-03-25 10.373 1,860
1955 1955-01-06 8.993 1,450
1956 1956-04-29 13.823 4,250
1957 1957-04-27 8.443 1,320
1958 1958-07-15 10.273 1,900
1959 1959-02-15   1,7002
1960 1960-01-13 11.943 2,600
1961 1961-04-26 12.633 2,640
1962 1962-03-13 12.201,3 1,8002
1963 1963-03-15   8001
1964 1964-04-03 3.843 453
1965 1965-02-10 11.393 2,140
1966 1965-12-25 12.243 2,480
1967 1966-12-08 11.723 2,270
1968 1967-12-22 13.703 3,180
1969 1969-01-30 13.183 2,920
1970 1970-07-31 8.783 1,350
1971 1971-02-22   3,2002
1972 1972-04-17 7.013 972
1973 1973-03-12 8.363 1,240
1974 1974-03-10 10.393 1,560
1975 1975-01-11 10.833 1,640
1976 1976-02-17 12.763 2,590
1977 1977-03-06 12.003 2,400
1978 1978-06-27 17.966 3,240
1979 1979-03-04 16.543 2,870
1980 1980-03-18 13.513 2,050
1981 1981-02-20 20.036 2,300
1982 1982-03 22.70Bd 4,9002,Bd
2001 2001-02-10 19.34 3,860
2002 2002-05-13 19.84 4,190
2003 2003-03-16   1,3002
2004 2004-05-24 16.24 1,610
2005 2005-01-13 18.65 3,650
2006 2006-03-13 16.58 2,400
2007 2006-12-02 16.16 2,280
2008 2008-07-03 19.37 4,340
2009 2009-03-11 20.20 3,570
2010 2010-05-22 18.90 3,060
2011 2011-04-28 17.85 2,660
2012 2011-11-30 20.57 3,700
2013 2013-04-19 17.26 2,450
2014 2014-03-16 16.24 2,090
2015 2015-06-28 20.88 3,820
2016 2015-12-29 12.52 900
2017 2017-04-06 18.04 2,730
2018 2018-02-21 19.44 3,270
2019 2019-05-02 19.28 3,210
2020 2020-05-19 20.88 3,730
2021 2021-07-25 17.03 2,080
2022 2022-02-17 19.09 2,920
?
  Peak Gage-Height Qualification Codes.
?
  Peak Streamflow Qualification Codes.